Location: Liberec
(50.7830°N, 15.0500°E)
Time: 18:33:12
(UTC+01:00)

ISS - Visible Passes

Search period start: 21 March 2019 00:00
Search period end: 31 March 2019 00:00
Orbit: 406 x 411 km, 51.6° (Epoch: 21 March)

Date Brightness Start Highest point End Pass type
(mag) Time Alt. Az. Time Alt. Az. Time Alt. Az.
21 Mar -1.0 20:28:48 10° SW 20:28:52 10° SSW 20:28:52 10° SSW visible
22 Mar -2.4 19:38:17 10° SSW 19:40:42 22° SSE 19:40:42 22° SSE visible
23 Mar -2.9 20:22:48 10° SW 20:25:05 38° SSW 20:25:05 38° SSW visible
24 Mar -3.2 19:31:54 10° SW 19:35:00 39° SSE 19:36:30 24° E visible
24 Mar -1.4 21:08:08 10° W 21:09:16 20° W 21:09:16 20° W visible
25 Mar -4.0 20:17:01 10° WSW 20:20:19 85° SSE 20:20:31 77° E visible
26 Mar -3.8 19:25:56 10° WSW 19:29:13 65° SSE 19:31:39 17° E visible
26 Mar -2.1 21:02:30 10° W 21:04:24 31° W 21:04:24 31° W visible
27 Mar -3.8 20:11:19 10° W 20:14:38 77° N 20:15:26 48° ENE visible
27 Mar -0.5 21:47:58 10° WNW 21:48:10 11° WNW 21:48:10 11° WNW visible
28 Mar -3.8 19:20:09 10° WSW 19:23:28 88° N 19:26:23 13° ENE visible
28 Mar -2.6 20:56:48 10° W 20:59:07 42° WNW 20:59:07 42° WNW visible
29 Mar -3.8 20:05:36 10° W 20:08:55 75° N 20:10:01 38° E visible
29 Mar -0.8 21:42:13 10° WNW 21:42:45 14° W 21:42:45 14° W visible
30 Mar -3.7 19:14:24 10° W 19:17:42 75° N 19:20:53 11° E visible
30 Mar -3.1 20:51:01 10° WNW 20:53:37 51° W 20:53:37 51° W visible
